Weather in Sergeevka

Kazakhstan     53°52′52″N   67°24′51″E
temp.,
°C
wind,
m/s
gust,
m/s
humid.,
%
clouds,
%
prec.,
mm/h
press.,
hPa
HPBL,
m
26 february, fri
fri2600:00−28w349972 0.0 103051
03:00−29wsw3499100 0.0 103062
06:00−30sw459899 0.1 103283
09:00−30sw4598100 0.0 103286
12:00−27sw469696 0.0 1033213
15:00−24sw469460 0.0 1033254
18:00−25ssw359544 0.0 1033119
21:00−28ssw44950 0.0 103372
27 february, sat
sat2700:00−30ssw46970 0.0 103378
03:00−30ssw34960 0.0 103258
06:00−30s34952 0.0 103246
09:00−30sse349544 0.0 103047
12:00−22sse369127 0.0 1028239
15:00−16sse589341 0.0 1026335
18:00−13sse5108970 0.1 1024487
21:00−12sse61489100 0.0 1022556
28 february, sun
sun2800:00−13sse71394100 0.4 1019623
03:00−12sse61294100 0.8 1016609
06:00−12sse51194100 1.2 1013496
09:00−10se61194100 0.4 1011462
12:00−7se5995100 1.3 1008458
15:00−3se5796100 1.0 1005449
18:00−2e4697100 2.2 1003260
21:00−4ene2497100 0.8 1004110
1 march, mon
mon100:00−5ne239799 1.2 100537
03:00−6ne339796 0.4 100659
06:00−7ne359698 1.1 1007138
09:00−9ne4695100 0.8 1007189
12:00−10nne4695100 1.5 1008261
15:00−11nnw469398 0.3 1011329
18:00−13nw369599 0.4 1014215
21:00−15nw3496100 0.1 101785
2 march, tue
tue200:00−16wnw239694 0.2 101831
03:00−16wnw229684 0.1 101952
06:00−17w229783 0.2 101921
09:00−17w229784 0.1 101964
12:00−15w239485 0.1 1019255
15:00−14wsw349295 0.0 1018328
18:00−16sw339475 0.0 101760
21:00−20sw34970 0.0 101738